Time,TemperatureF,DewpointF,PressureIn,WindDirection,WindDirectionDegrees,WindSpeedMPH,WindSpeedGustMPH,Humidity,HourlyPrecipIn,Conditions,Clouds,dailyrainin,SoftwareType,DateUTC
2013-03-10 00:00:00,37.4,32.4,29.06,SE,146,0.0,0.0,82,0.00,,---,0.00,VWS V14.01,2013-03-10 06:00:00,
2013-03-10 00:10:00,37.4,33.0,29.06,NNE,18,0.0,0.0,84,0.00,,---,0.00,VWS V14.01,2013-03-10 06:10:00,
2013-03-10 00:20:00,37.2,33.4,29.06,North,357,5.4,5.4,86,0.00,,---,0.00,VWS V14.01,2013-03-10 06:20:00,
2013-03-10 00:25:00,37.6,34.3,29.06,NNE,15,5.8,6.3,88,0.00,,---,0.00,VWS V14.01,2013-03-10 06:25:00,
2013-03-10 00:35:00,37.9,35.0,29.06,NNE,27,2.7,5.8,89,0.00,,---,0.00,VWS V14.01,2013-03-10 06:35:00,
2013-03-10 00:40:00,37.8,34.5,29.06,NE,40,3.1,4.9,88,0.00,,---,0.00,VWS V14.01,2013-03-10 06:40:00,
2013-03-10 00:50:00,37.6,34.3,29.06,NE,51,2.7,4.5,88,0.00,,---,0.00,VWS V14.01,2013-03-10 06:50:00,
2013-03-10 01:00:00,37.6,34.3,29.06,ENE,59,0.0,0.0,88,0.00,,---,0.00,VWS V14.01,2013-03-10 07:00:00,
2013-03-10 01:05:00,37.8,34.5,29.06,ENE,59,0.0,3.1,88,0.00,,---,0.00,VWS V14.01,2013-03-10 07:05:00,
2013-03-10 01:10:00,37.6,34.3,29.06,ENE,59,0.0,0.0,88,0.00,,---,0.00,VWS V14.01,2013-03-10 07:10:00,
2013-03-10 01:15:00,37.6,34.1,29.06,ENE,59,0.0,0.0,87,0.00,,---,0.00,VWS V14.01,2013-03-10 07:15:00,
2013-03-10 01:20:00,37.2,34.0,29.06,ENE,59,0.0,0.0,88,0.00,,---,0.00,VWS V14.01,2013-03-10 07:20:00,
2013-03-10 01:30:00,37.0,33.8,29.06,NE,41,2.7,4.0,88,0.00,,---,0.00,VWS V14.01,2013-03-10 07:30:00,
2013-03-10 01:35:00,37.2,34.0,29.06,NE,41,0.0,2.7,88,0.00,,---,0.00,VWS V14.01,2013-03-10 07:35:00,
2013-03-10 01:45:00,37.2,34.0,29.06,NE,41,0.0,0.0,88,0.00,,---,0.00,VWS V14.01,2013-03-10 07:45:00,
2013-03-10 01:50:00,37.0,33.8,29.06,ENE,61,0.0,0.0,88,0.00,,---,0.00,VWS V14.01,2013-03-10 07:50:00,
2013-03-10 01:55:00,37.0,33.8,29.06,NE,46,3.6,3.6,88,0.00,,---,0.00,VWS V14.01,2013-03-10 07:55:00,
2013-03-10 03:00:00,36.9,33.4,29.03,NE,44,0.0,4.0,87,0.00,,---,0.00,VWS V14.01,2013-03-10 08:00:00,
2013-03-10 03:10:00,37.0,33.8,29.03,NE,44,0.0,0.0,88,0.00,,---,0.00,VWS V14.01,2013-03-10 08:10:00,
2013-03-10 03:15:00,37.2,34.0,29.03,NE,37,0.0,0.0,88,0.00,,---,0.00,VWS V14.01,2013-03-10 08:15:00,
2013-03-10 03:25:00,37.2,34.0,29.03,NE,37,0.0,0.0,88,0.04,,---,0.04,VWS V14.01,2013-03-10 08:25:00,
2013-03-10 03:30:00,37.4,34.2,29.03,NE,37,0.0,0.0,88,0.04,,---,0.04,VWS V14.01,2013-03-10 08:30:00,
2013-03-10 03:35:00,37.4,34.2,29.03,NE,37,0.0,0.0,88,0.04,,---,0.04,VWS V14.01,2013-03-10 08:35:00,
2013-03-10 03:45:00,37.2,34.0,29.03,NE,37,0.0,0.0,88,0.04,,---,0.04,VWS V14.01,2013-03-10 08:45:00,
2013-03-10 03:50:00,37.0,33.8,29.03,NE,36,4.9,4.9,88,0.04,,---,0.04,VWS V14.01,2013-03-10 08:50:00,
2013-03-10 04:00:00,37.0,33.8,29.03,NNE,32,3.6,4.9,88,0.04,,---,0.04,VWS V14.01,2013-03-10 09:00:00,
2013-03-10 04:10:00,36.9,33.7,29.03,NNE,21,6.3,6.7,88,0.04,,---,0.04,VWS V14.01,2013-03-10 09:10:00,
2013-03-10 04:20:00,36.9,33.9,29.00,NNE,22,5.4,6.3,89,0.04,,---,0.04,VWS V14.01,2013-03-10 09:20:00,
2013-03-10 04:30:00,37.0,34.1,29.00,NNE,28,5.4,5.4,89,0.00,,---,0.04,VWS V14.01,2013-03-10 09:30:00,
2013-03-10 04:35:00,37.2,34.3,29.00,NNE,27,5.4,5.4,89,0.00,,---,0.04,VWS V14.01,2013-03-10 09:35:00,
2013-03-10 04:45:00,37.2,34.3,29.00,NE,44,4.0,5.8,89,0.04,,---,0.08,VWS V14.01,2013-03-10 09:45:00,
2013-03-10 04:55:00,37.4,34.5,29.00,NE,47,0.0,2.7,89,0.04,,---,0.08,VWS V14.01,2013-03-10 09:55:00,
2013-03-10 05:00:00,37.2,34.3,29.03,NE,47,0.0,0.0,89,0.04,,---,0.08,VWS V14.01,2013-03-10 10:00:00,
2013-03-10 05:05:00,37.4,34.5,29.03,NE,47,0.0,0.0,89,0.08,,---,0.12,VWS V14.01,2013-03-10 10:05:00,
2013-03-10 05:15:00,37.6,34.6,29.03,NE,47,0.0,0.0,89,0.08,,---,0.12,VWS V14.01,2013-03-10 10:15:00,
2013-03-10 05:20:00,37.8,34.8,29.03,NE,47,0.0,0.0,89,0.08,,---,0.12,VWS V14.01,2013-03-10 10:20:00,
2013-03-10 05:30:00,37.6,34.6,29.03,NNE,28,3.1,4.5,89,0.12,,---,0.16,VWS V14.01,2013-03-10 10:30:00,
2013-03-10 05:40:00,37.6,34.6,29.03,NNE,23,3.6,4.0,89,0.12,,---,0.16,VWS V14.01,2013-03-10 10:40:00,
2013-03-10 05:45:00,37.6,34.6,29.03,NE,39,3.6,5.4,89,0.12,,---,0.16,VWS V14.01,2013-03-10 10:45:00,
2013-03-10 05:55:00,37.4,34.5,29.03,NE,48,3.6,4.9,89,0.08,,---,0.16,VWS V14.01,2013-03-10 10:55:00,
2013-03-10 06:05:00,37.0,34.1,29.00,ENE,69,4.9,5.4,89,0.08,,---,0.16,VWS V14.01,2013-03-10 11:05:00,
2013-03-10 06:10:00,36.9,33.9,29.00,ESE,103,3.1,4.9,89,0.04,,---,0.16,VWS V14.01,2013-03-10 11:10:00,
2013-03-10 06:20:00,36.9,33.9,29.00,East,95,4.0,4.9,89,0.04,,---,0.16,VWS V14.01,2013-03-10 11:20:00,
2013-03-10 06:25:00,37.0,34.1,29.00,East,89,5.8,5.8,89,0.04,,---,0.16,VWS V14.01,2013-03-10 11:25:00,
2013-03-10 06:30:00,36.9,33.9,28.97,East,92,6.3,8.1,89,0.00,,---,0.16,VWS V14.01,2013-03-10 11:30:00,
2013-03-10 06:35:00,36.9,33.9,28.97,East,83,5.4,7.6,89,0.00,,---,0.16,VWS V14.01,2013-03-10 11:35:00,
2013-03-10 06:40:00,36.9,33.9,28.97,ENE,66,5.8,8.3,89,0.00,,---,0.16,VWS V14.01,2013-03-10 11:40:00,
2013-03-10 06:50:00,36.9,33.9,29.00,ESE,123,3.1,4.9,89,0.00,,---,0.16,VWS V14.01,2013-03-10 11:50:00,
2013-03-10 06:55:00,37.0,34.1,29.00,NNE,21,0.0,4.0,89,0.00,,---,0.16,VWS V14.01,2013-03-10 11:55:00,
2013-03-10 07:05:00,37.2,34.3,29.00,NNE,22,0.0,0.0,89,0.00,,---,0.16,VWS V14.01,2013-03-10 12:05:00,
2013-03-10 07:15:00,36.7,33.8,29.03,North,349,5.4,5.4,89,0.00,,---,0.16,VWS V14.01,2013-03-10 12:15:00,
2013-03-10 07:20:00,36.9,33.9,29.03,NNW,346,0.0,5.4,89,0.00,,---,0.16,VWS V14.01,2013-03-10 12:20:00,
2013-03-10 07:30:00,36.9,34.2,29.03,North,357,4.5,4.5,90,0.00,,---,0.16,VWS V14.01,2013-03-10 12:30:00,
2013-03-10 07:40:00,37.0,34.4,29.03,NNE,19,3.6,5.4,90,0.00,,---,0.16,VWS V14.01,2013-03-10 12:40:00,
2013-03-10 07:50:00,37.2,34.6,29.00,NE,50,0.0,4.9,90,0.00,,---,0.16,VWS V14.01,2013-03-10 12:50:00,
2013-03-10 08:00:00,37.6,34.9,29.03,NE,50,0.0,0.0,90,0.00,,---,0.16,VWS V14.01,2013-03-10 13:00:00,
2013-03-10 08:10:00,37.8,35.1,29.03,NE,43,0.0,0.0,90,0.00,,---,0.16,VWS V14.01,2013-03-10 13:10:00,
2013-03-10 08:15:00,37.6,34.9,29.03,NE,43,0.0,4.0,90,0.00,,---,0.16,VWS V14.01,2013-03-10 13:15:00,
2013-03-10 08:25:00,37.2,34.6,29.03,NE,43,0.0,2.7,90,0.00,,---,0.16,VWS V14.01,2013-03-10 13:25:00,
2013-03-10 08:30:00,36.9,34.2,29.06,NE,43,0.0,0.0,90,0.00,,---,0.16,VWS V14.01,2013-03-10 13:30:00,
2013-03-10 08:35:00,36.7,33.8,29.06,NE,43,0.0,0.0,89,0.00,,---,0.16,VWS V14.01,2013-03-10 13:35:00,
2013-03-10 08:40:00,36.7,33.8,29.06,NE,43,0.0,0.0,89,0.00,,---,0.16,VWS V14.01,2013-03-10 13:40:00,
2013-03-10 08:50:00,36.7,33.8,29.06,NE,43,0.0,0.0,89,0.00,,---,0.16,VWS V14.01,2013-03-10 13:50:00,
2013-03-10 08:55:00,36.7,33.8,29.06,NE,43,0.0,0.0,89,0.00,,---,0.16,VWS V14.01,2013-03-10 13:55:00,
2013-03-10 09:00:00,37.0,34.4,29.06,NE,43,0.0,0.0,90,0.04,,---,0.20,VWS V14.01,2013-03-10 14:00:00,
2013-03-10 09:10:00,37.2,34.6,29.06,NE,43,0.0,0.0,90,0.04,,---,0.20,VWS V14.01,2013-03-10 14:10:00,
2013-03-10 09:15:00,37.6,34.9,29.06,NE,43,0.0,0.0,90,0.04,,---,0.20,VWS V14.01,2013-03-10 14:15:00,
2013-03-10 09:25:00,37.6,34.9,29.06,NNE,30,0.0,0.0,90,0.04,,---,0.20,VWS V14.01,2013-03-10 14:25:00,
2013-03-10 09:35:00,37.4,34.7,29.06,NNE,30,2.7,3.6,90,0.04,,---,0.20,VWS V14.01,2013-03-10 14:35:00,
2013-03-10 09:40:00,37.4,34.7,29.06,NNE,26,2.7,3.6,90,0.04,,---,0.20,VWS V14.01,2013-03-10 14:40:00,
2013-03-10 09:45:00,37.4,34.7,29.06,NNE,26,2.7,4.0,90,0.04,,---,0.20,VWS V14.01,2013-03-10 14:45:00,
2013-03-10 09:55:00,37.0,34.4,29.06,NNE,23,4.0,5.4,90,0.04,,---,0.20,VWS V14.01,2013-03-10 14:55:00,
2013-03-10 10:00:00,37.0,34.4,29.06,NNE,29,4.0,5.8,90,0.04,,---,0.20,VWS V14.01,2013-03-10 15:00:00,
2013-03-10 10:05:00,37.2,34.8,29.06,NE,45,4.9,5.4,91,0.00,,---,0.20,VWS V14.01,2013-03-10 15:05:00,
2013-03-10 10:10:00,37.9,35.5,29.06,NE,51,6.3,7.6,91,0.00,,---,0.20,VWS V14.01,2013-03-10 15:10:00,
2013-03-10 10:15:00,38.3,35.9,29.06,NE,47,6.7,8.1,91,0.00,,---,0.20,VWS V14.01,2013-03-10 15:15:00,
2013-03-10 10:20:00,38.3,35.9,29.06,NNE,29,6.7,8.7,91,0.00,,---,0.20,VWS V14.01,2013-03-10 15:20:00,
2013-03-10 10:25:00,38.3,35.9,29.06,NE,37,5.4,8.1,91,0.00,,---,0.20,VWS V14.01,2013-03-10 15:25:00,
2013-03-10 10:35:00,38.7,36.3,29.06,NNE,25,3.1,4.0,91,0.00,,---,0.20,VWS V14.01,2013-03-10 15:35:00,
2013-03-10 10:45:00,38.8,36.4,29.06,NNE,22,4.0,4.5,91,0.00,,---,0.20,VWS V14.01,2013-03-10 15:45:00,
2013-03-10 10:55:00,38.8,36.4,29.06,NNE,25,8.7,8.7,91,0.00,,---,0.20,VWS V14.01,2013-03-10 15:55:00,
2013-03-10 11:00:00,38.7,36.3,29.06,NNE,13,6.3,11.0,91,0.00,,---,0.20,VWS V14.01,2013-03-10 16:00:00,
2013-03-10 11:10:00,38.3,35.9,29.06,NE,47,5.4,8.1,91,0.00,,---,0.20,VWS V14.01,2013-03-10 16:10:00,
2013-03-10 11:20:00,38.3,35.9,29.06,NE,35,9.6,11.0,91,0.00,,---,0.20,VWS V14.01,2013-03-10 16:20:00,
2013-03-10 11:25:00,38.3,35.9,29.06,North,4,4.0,9.6,91,0.00,,---,0.20,VWS V14.01,2013-03-10 16:25:00,
2013-03-10 11:35:00,38.5,36.1,29.06,NNE,14,7.6,10.5,91,0.00,,---,0.20,VWS V14.01,2013-03-10 16:35:00,
2013-03-10 11:45:00,38.5,36.1,29.06,NE,49,5.4,8.7,91,0.00,,---,0.20,VWS V14.01,2013-03-10 16:45:00,
2013-03-10 11:50:00,38.7,36.0,29.06,NNE,23,4.9,8.1,90,0.00,,---,0.20,VWS V14.01,2013-03-10 16:50:00,
2013-03-10 11:55:00,38.7,36.0,29.06,NNE,28,6.3,8.3,90,0.00,,---,0.20,VWS V14.01,2013-03-10 16:55:00,
2013-03-10 12:05:00,38.5,35.8,29.06,NNE,25,4.0,6.3,90,0.00,,---,0.20,VWS V14.01,2013-03-10 17:05:00,
2013-03-10 12:15:00,38.7,36.0,29.06,ENE,59,0.0,0.0,90,0.00,,---,0.20,VWS V14.01,2013-03-10 17:15:00,
2013-03-10 12:20:00,38.7,36.0,29.06,NE,52,5.4,7.6,90,0.00,,---,0.20,VWS V14.01,2013-03-10 17:20:00,
2013-03-10 12:30:00,38.5,35.5,29.06,NNE,24,9.2,11.4,89,0.00,,---,0.20,VWS V14.01,2013-03-10 17:30:00,
2013-03-10 12:40:00,38.3,35.3,29.06,NE,41,10.5,15.9,89,0.00,,---,0.20,VWS V14.01,2013-03-10 17:40:00,
2013-03-10 12:50:00,38.5,35.5,29.06,NE,36,8.7,13.6,89,0.00,,---,0.20,VWS V14.01,2013-03-10 17:50:00,
2013-03-10 12:55:00,38.3,35.3,29.06,ENE,58,8.1,12.3,89,0.00,,---,0.20,VWS V14.01,2013-03-10 17:55:00,
2013-03-10 13:05:00,38.3,35.1,29.09,ENE,60,5.8,10.1,88,0.00,,---,0.20,VWS V14.01,2013-03-10 18:05:00,
2013-03-10 13:10:00,38.3,35.1,29.09,NE,39,8.3,10.1,88,0.00,,---,0.20,VWS V14.01,2013-03-10 18:10:00,
2013-03-10 13:15:00,38.5,35.2,29.09,NE,52,5.8,10.5,88,0.00,,---,0.20,VWS V14.01,2013-03-10 18:15:00,
2013-03-10 13:20:00,38.5,35.2,29.09,NE,38,7.2,10.1,88,0.00,,---,0.20,VWS V14.01,2013-03-10 18:20:00,
2013-03-10 13:30:00,38.3,35.1,29.06,NE,47,6.3,11.0,88,0.00,,---,0.20,VWS V14.01,2013-03-10 18:30:00,
2013-03-10 13:35:00,38.1,34.9,29.06,NE,52,10.5,12.8,88,0.04,,---,0.24,VWS V14.01,2013-03-10 18:35:00,
2013-03-10 13:40:00,38.1,34.9,29.06,NE,50,8.3,11.0,88,0.04,,---,0.24,VWS V14.01,2013-03-10 18:40:00,
2013-03-10 13:50:00,37.9,34.4,29.09,NNE,30,11.0,11.0,87,0.04,,---,0.24,VWS V14.01,2013-03-10 18:50:00,
2013-03-10 13:55:00,37.9,34.4,29.09,NE,56,8.1,12.8,87,0.04,,---,0.24,VWS V14.01,2013-03-10 18:55:00,
2013-03-10 14:05:00,37.9,34.4,29.06,NE,53,10.1,15.0,87,0.04,,---,0.24,VWS V14.01,2013-03-10 19:05:00,
2013-03-10 14:10:00,37.9,34.4,29.06,NE,43,12.8,16.8,87,0.04,,---,0.24,VWS V14.01,2013-03-10 19:10:00,
2013-03-10 14:15:00,37.9,34.4,29.03,NE,51,8.3,16.8,87,0.04,,---,0.24,VWS V14.01,2013-03-10 19:15:00,
2013-03-10 14:25:00,37.8,34.2,29.03,NE,53,8.7,13.2,87,0.04,,---,0.24,VWS V14.01,2013-03-10 19:25:00,
2013-03-10 14:30:00,37.8,34.0,29.03,NE,41,10.1,15.0,86,0.04,,---,0.24,VWS V14.01,2013-03-10 19:30:00,
2013-03-10 14:40:00,37.8,34.0,29.03,NE,49,12.8,16.3,86,0.00,,---,0.24,VWS V14.01,2013-03-10 19:40:00,
2013-03-10 14:50:00,37.8,33.7,29.03,NE,46,8.3,17.0,85,0.00,,---,0.24,VWS V14.01,2013-03-10 19:50:00,
2013-03-10 14:55:00,37.8,33.7,29.03,NE,52,8.7,11.0,85,0.00,,---,0.24,VWS V14.01,2013-03-10 19:55:00,
2013-03-10 15:05:00,37.6,33.5,29.03,NE,51,11.0,11.0,85,0.00,,---,0.24,VWS V14.01,2013-03-10 20:05:00,
2013-03-10 15:15:00,37.6,33.2,29.03,NNE,25,8.3,15.4,84,0.00,,---,0.24,VWS V14.01,2013-03-10 20:15:00,
2013-03-10 15:20:00,37.4,32.7,29.03,NE,42,13.6,16.3,83,0.00,,---,0.24,VWS V14.01,2013-03-10 20:20:00,
2013-03-10 15:30:00,37.0,32.1,29.00,NE,46,16.3,16.8,82,0.00,,---,0.24,VWS V14.01,2013-03-10 20:30:00,
2013-03-10 15:35:00,37.0,31.8,29.00,NE,43,14.1,16.3,81,0.00,,---,0.24,VWS V14.01,2013-03-10 20:35:00,
2013-03-10 15:40:00,37.0,32.1,29.00,NE,41,11.0,17.9,82,0.04,,---,0.28,VWS V14.01,2013-03-10 20:40:00,
2013-03-10 15:50:00,36.9,31.9,29.00,NNE,32,14.1,16.8,82,0.04,,---,0.28,VWS V14.01,2013-03-10 20:50:00,
2013-03-10 16:00:00,36.9,31.9,29.03,NE,35,14.1,19.2,82,0.04,,---,0.28,VWS V14.01,2013-03-10 21:00:00,
2013-03-10 16:10:00,36.9,31.9,29.03,NE,42,19.7,19.7,82,0.04,,---,0.28,VWS V14.01,2013-03-10 21:10:00,
2013-03-10 16:15:00,36.9,31.9,29.03,NE,47,8.3,19.7,82,0.04,,---,0.28,VWS V14.01,2013-03-10 21:15:00,
2013-03-10 16:25:00,36.9,32.2,29.03,NE,55,10.1,15.0,83,0.04,,---,0.28,VWS V14.01,2013-03-10 21:25:00,
2013-03-10 16:30:00,36.7,32.0,29.03,NNE,31,16.3,16.3,83,0.08,,---,0.31,VWS V14.01,2013-03-10 21:30:00,
2013-03-10 16:35:00,36.7,32.0,29.03,NE,37,9.6,16.3,83,0.08,,---,0.31,VWS V14.01,2013-03-10 21:35:00,
2013-03-10 16:45:00,36.5,32.1,29.03,NE,50,8.3,11.9,84,0.04,,---,0.31,VWS V14.01,2013-03-10 21:45:00,
2013-03-10 16:50:00,36.3,32.0,29.03,ENE,63,13.6,15.4,84,0.12,,---,0.39,VWS V14.01,2013-03-10 21:50:00,
2013-03-10 17:00:00,36.3,32.0,29.03,NE,37,10.5,11.0,84,0.12,,---,0.39,VWS V14.01,2013-03-10 22:00:00,
2013-03-10 17:05:00,36.3,32.2,29.03,NE,53,12.8,13.6,85,0.12,,---,0.39,VWS V14.01,2013-03-10 22:05:00,
2013-03-10 17:10:00,36.3,32.0,29.03,NNE,28,13.2,15.4,84,0.12,,---,0.39,VWS V14.01,2013-03-10 22:10:00,
2013-03-10 17:15:00,36.1,31.8,29.03,NE,35,15.4,17.9,84,0.12,,---,0.39,VWS V14.01,2013-03-10 22:15:00,
2013-03-10 17:25:00,36.1,31.5,29.03,NNE,33,21.9,22.8,83,0.16,,---,0.43,VWS V14.01,2013-03-10 22:25:00,
2013-03-10 17:35:00,36.1,31.5,29.00,NNE,31,16.3,18.8,83,0.12,,---,0.43,VWS V14.01,2013-03-10 22:35:00,
2013-03-10 17:45:00,36.1,30.9,29.00,NE,41,16.8,21.5,81,0.12,,---,0.43,VWS V14.01,2013-03-10 22:45:00,
2013-03-10 17:55:00,36.1,30.3,29.00,NE,54,15.0,18.8,79,0.08,,---,0.47,VWS V14.01,2013-03-10 22:55:00,
2013-03-10 18:00:00,36.0,30.1,29.00,NNE,31,19.7,19.7,79,0.08,,---,0.47,VWS V14.01,2013-03-10 23:00:00,
2013-03-10 18:10:00,36.0,30.1,29.00,NE,44,13.2,21.5,79,0.08,,---,0.47,VWS V14.01,2013-03-10 23:10:00,
2013-03-10 18:20:00,35.8,29.6,28.97,ENE,65,14.1,20.6,78,0.08,,---,0.47,VWS V14.01,2013-03-10 23:20:00,
2013-03-10 18:30:00,35.6,29.4,28.97,NE,38,22.8,22.8,78,0.04,,---,0.47,VWS V14.01,2013-03-10 23:30:00,
2013-03-10 18:35:00,35.6,29.4,28.97,NE,56,17.4,22.8,78,0.04,,---,0.47,VWS V14.01,2013-03-10 23:35:00,
2013-03-10 18:40:00,35.6,29.4,28.97,NE,47,15.4,17.4,78,0.04,,---,0.47,VWS V14.01,2013-03-10 23:40:00,
2013-03-10 18:45:00,35.6,29.4,28.97,ENE,58,17.4,17.9,78,0.04,,---,0.47,VWS V14.01,2013-03-10 23:45:00,
2013-03-10 18:50:00,35.4,29.6,28.97,NNE,31,12.3,17.9,79,0.04,,---,0.47,VWS V14.01,2013-03-10 23:50:00,
2013-03-10 18:55:00,35.6,29.7,28.97,NE,46,15.0,25.5,79,0.04,,---,0.47,VWS V14.01,2013-03-10 23:55:00,
2013-03-10 19:05:00,35.4,29.6,28.97,ENE,61,17.4,26.2,79,0.04,,---,0.51,VWS V14.01,2013-03-11 00:05:00,
2013-03-10 19:10:00,35.4,29.6,28.97,NE,50,17.4,22.8,79,0.04,,---,0.51,VWS V14.01,2013-03-11 00:10:00,
2013-03-10 19:20:00,35.4,29.6,28.94,NE,50,17.4,22.8,79,0.04,,---,0.51,VWS V14.01,2013-03-11 00:20:00,
2013-03-10 19:25:00,35.4,29.6,28.94,NE,54,15.4,17.4,79,0.04,,---,0.51,VWS V14.01,2013-03-11 00:25:00,
2013-03-10 19:35:00,35.2,29.4,28.97,ENE,72,22.4,22.4,79,0.04,,---,0.51,VWS V14.01,2013-03-11 00:35:00,
2013-03-10 19:45:00,35.1,29.5,28.97,East,84,15.4,22.8,80,0.04,,---,0.51,VWS V14.01,2013-03-11 00:45:00,
2013-03-10 19:55:00,35.1,29.8,28.97,NE,41,15.4,17.4,81,0.04,,---,0.51,VWS V14.01,2013-03-11 00:55:00,
2013-03-10 20:05:00,35.1,30.1,28.94,NNE,26,11.4,19.7,82,0.04,,---,0.51,VWS V14.01,2013-03-11 01:05:00,
2013-03-10 20:15:00,35.1,30.1,28.94,NE,52,12.8,17.9,82,0.00,,---,0.51,VWS V14.01,2013-03-11 01:15:00,
2013-03-10 20:20:00,35.1,30.1,28.94,NE,37,12.8,17.9,82,0.00,,---,0.51,VWS V14.01,2013-03-11 01:20:00,
2013-03-10 20:30:00,35.1,30.1,28.94,NE,41,17.4,20.1,82,0.00,,---,0.51,VWS V14.01,2013-03-11 01:30:00,
2013-03-10 20:40:00,34.9,30.2,28.94,NE,38,15.9,19.2,83,0.00,,---,0.51,VWS V14.01,2013-03-11 01:40:00,
2013-03-10 20:45:00,34.9,30.2,28.94,NE,37,17.9,21.0,83,0.00,,---,0.51,VWS V14.01,2013-03-11 01:45:00,
2013-03-10 20:50:00,34.7,30.1,28.94,NE,45,13.2,22.4,83,0.04,,---,0.55,VWS V14.01,2013-03-11 01:50:00,
2013-03-10 20:55:00,34.5,29.9,28.94,NE,54,17.0,17.0,83,0.04,,---,0.55,VWS V14.01,2013-03-11 01:55:00,
2013-03-10 21:00:00,34.5,29.9,28.94,ENE,59,15.0,21.0,83,0.04,,---,0.55,VWS V14.01,2013-03-11 02:00:00,
2013-03-10 21:05:00,34.3,29.7,28.94,ENE,59,11.0,17.0,83,0.04,,---,0.55,VWS V14.01,2013-03-11 02:05:00,
2013-03-10 21:10:00,34.5,29.9,28.94,NE,49,13.2,18.3,83,0.04,,---,0.55,VWS V14.01,2013-03-11 02:10:00,
2013-03-10 21:15:00,34.3,29.7,28.94,NE,55,17.9,21.0,83,0.08,,---,0.59,VWS V14.01,2013-03-11 02:15:00,
2013-03-10 21:20:00,34.3,29.7,28.94,NE,40,15.0,21.0,83,0.08,,---,0.59,VWS V14.01,2013-03-11 02:20:00,
2013-03-10 21:30:00,34.2,29.5,28.94,ENE,58,12.3,17.4,83,0.08,,---,0.59,VWS V14.01,2013-03-11 02:30:00,
2013-03-10 21:35:00,34.2,29.5,28.94,NE,43,12.8,19.2,83,0.08,,---,0.59,VWS V14.01,2013-03-11 02:35:00,
2013-03-10 21:40:00,34.3,29.7,28.94,NE,52,13.2,24.2,83,0.12,,---,0.63,VWS V14.01,2013-03-11 02:40:00,
2013-03-10 21:45:00,34.2,29.2,28.94,NE,52,13.2,20.1,82,0.12,,---,0.63,VWS V14.01,2013-03-11 02:45:00,
2013-03-10 21:50:00,34.3,29.4,28.94,NE,43,13.2,16.3,82,0.12,,---,0.63,VWS V14.01,2013-03-11 02:50:00,
2013-03-10 21:55:00,34.3,29.4,28.94,NE,56,10.5,16.3,82,0.08,,---,0.63,VWS V14.01,2013-03-11 02:55:00,
2013-03-10 22:05:00,34.0,28.8,28.94,ENE,73,11.0,13.2,81,0.08,,---,0.63,VWS V14.01,2013-03-11 03:05:00,
2013-03-10 22:15:00,34.0,29.1,28.94,ENE,76,8.7,13.6,82,0.08,,---,0.63,VWS V14.01,2013-03-11 03:15:00,
2013-03-10 22:20:00,34.0,29.1,28.94,ENE,69,8.3,12.3,82,0.04,,---,0.63,VWS V14.01,2013-03-11 03:20:00,
2013-03-10 22:25:00,34.0,29.1,28.94,NE,50,11.0,13.2,82,0.04,,---,0.63,VWS V14.01,2013-03-11 03:25:00,
2013-03-10 22:30:00,34.0,29.1,28.94,NE,49,13.6,16.3,82,0.08,,---,0.67,VWS V14.01,2013-03-11 03:30:00,
2013-03-10 22:40:00,34.0,29.1,28.94,NE,36,12.8,16.8,82,0.08,,---,0.67,VWS V14.01,2013-03-11 03:40:00,
2013-03-10 22:45:00,34.2,29.2,28.94,NE,35,17.4,17.4,82,0.04,,---,0.67,VWS V14.01,2013-03-11 03:45:00,
2013-03-10 22:50:00,34.2,29.2,28.94,NE,45,15.4,19.7,82,0.04,,---,0.67,VWS V14.01,2013-03-11 03:50:00,
2013-03-10 23:00:00,34.0,28.8,28.94,ENE,58,10.1,15.9,81,0.04,,---,0.67,VWS V14.01,2013-03-11 04:00:00,
2013-03-10 23:05:00,34.0,28.8,28.94,NE,52,13.2,15.0,81,0.04,,---,0.67,VWS V14.01,2013-03-11 04:05:00,
2013-03-10 23:15:00,34.0,29.1,28.94,NE,39,14.5,18.3,82,0.04,,---,0.67,VWS V14.01,2013-03-11 04:15:00,
2013-03-10 23:20:00,34.0,28.8,28.94,NE,48,11.0,15.0,81,0.04,,---,0.67,VWS V14.01,2013-03-11 04:20:00,
2013-03-10 23:30:00,34.0,28.8,28.94,NNE,22,8.7,14.5,81,0.04,,---,0.67,VWS V14.01,2013-03-11 04:30:00,
2013-03-10 23:40:00,34.0,28.8,28.94,NE,48,11.9,15.0,81,0.00,,---,0.67,VWS V14.01,2013-03-11 04:40:00,
2013-03-10 23:45:00,33.8,28.9,28.94,NE,42,8.1,15.0,82,0.00,,---,0.67,VWS V14.01,2013-03-11 04:45:00,
2013-03-10 23:50:00,33.8,28.9,28.94,NE,38,11.0,11.9,82,0.00,,---,0.67,VWS V14.01,2013-03-11 04:50:00,
2013-03-10 23:55:00,33.8,28.9,28.94,North,6,8.3,12.8,82,0.00,,---,0.67,VWS V14.01,2013-03-11 04:55:00,